User: anonymous   Login
Location: Caltech
(34.1382°N, 118.1253°W)
Time: 07:28:19
(UTC-07:00)
Language:

Courier 1B - Orbit

View from above orbital plane
View from above orbital plane
View from above satellite
View from above satellite

Ground track
Ground track

The orbit data is extracted from the following two-line orbital elements,

1 00058U 60013A   15089.83343237  .00000109  00000-0  36702-4 0  9991
2 00058 028.3281 042.1488 0165097 132.7511 228.7053 13.46290938682158
Epoch (UTC): 30 March 2015 20:00:08
Eccentricity: 0.0165097
inclination: 28.3281°
perigee height: 963 km
apogee height: 1209 km
right ascension of ascending node: 42.1488°
argument of perigee: 132.7511°
revolutions per day: 13.46290938
mean anomaly at epoch: 228.7053°
orbit number at epoch: 68215

The dashed part of the orbit path shows where the satellite is in the earth's shadow,  

DLR